OSCAR 25

Satellite information

Favourite Embed

Satellite Type and Status

PAYLOADIN ORBIT

Key statistics

Satellite OSCAR 25 at a glance.

Uptime

13573

Days in orbit

Revolutions

≈ 13.4

Per day

Orbit

SSO

Sun Synchronous Orbit

Inclination

90.0

Latest

Satellite identification and parameters

Extended collection of information and parameters for OSCAR 25.

Object identification

Identified? True

Debris? False

Object name: OSCAR 25

International designator: 1988-074A

Object number (NORAD): 19419

Object ID (CCSDS): 19419

Country: UNITED STATES OF AMERICA (US)

Current information (Y/N): Y

RCS size: LARGE

Orbital parameters

Period: 107.254 minutes

Inclination: 90.0398 deg

SMA: 7477.712 km

Apoapsis: 1172.063 km

Periapsis: 1027.09 km

RAAN: 20.0574 deg

Eccentricy: 0.0096937

Argument of periapsis: 35.5652 deg

Mean anomaly: 80.1286 deg

Mean motion: 13.42609437 rev/day

Mean motion (dot): 0.00000143 rev/day2

B* drag term: 0.00022891 1/REarth

Two-line elements (TLE)

Creation date: Oct. 22, 2025, 12:06 a.m.

Reference frame: TEME

Reference center: EARTH

Epoch: Oct. 21, 2025, 7:30 p.m. UTC

TLE line 0: 0 OSCAR 25

TLE line 1: 1 19419U 88074A 25294.81269926 .00000143 00000-0 22891-3 0 9999

TLE line 2: 2 19419 90.0398 20.0574 0096937 35.5652 80.1286 13.42609437819432

Live tracking on map

Real-time ground track for satellite OSCAR 25.

In-orbit conjunctions

A list of the most updated potential collisions computed for object OSCAR 25.

Target Orbit TCA Probability of collision Miss distance Type
FENGYUN 1C DEB SSO 2025-03-30 09:01:16 0.0001145641 575.0 (m) DEBRIS

Associated space launch

The Transit-O series of satellites that closely followed the design of Transit 5C-1 were also called “Oscars” (Oscar is the phonetic alphabet for “O”, i. e., operational). They were also called NNS (Navy Navigation Satellite) or shortened NavSat.

OSCAR 25 was lifted into orbit during the mission ‘Scout G-1 | Transit-O 25,31’, on board a Scout G-1 space rocket.

The launch took place on Aug. 25, 1988, 6:59 a.m. from Space Launch Complex 5.

For more information about the launch, click the button.

Launch to space Scout G-1 | Transit-O 25,31
Scout G-1 | Transit-O 25,31

Agency: N/A

Status: Launch Successful

Launch date: Aug. 25, 1988, 6:59 a.m. UTC

Rocket: Scout G-1

Launch pad: Space Launch Complex 5

Location: Vandenberg SFB, CA, USA

...

Latest news about this satellite

There are no fresh news available about this satellite. Check back as we update our databases every day.


Newsletter sign-up

Weekly statistics, charts and insights to help you stay on top of the space industry.